Year,Month,Day,Hour,Minute,Value (Times are PST for temperature in C)
2007,08,03,00,00,16.40
2007,08,03,00,01,16.40
2007,08,03,00,02,16.40
2007,08,03,00,03,16.30
2007,08,03,00,04,16.30
2007,08,03,00,05,16.20
2007,08,03,00,06,16.20
2007,08,03,00,07,16.20
2007,08,03,00,08,16.20
2007,08,03,00,09,16.20
2007,08,03,00,10,16.20
2007,08,03,00,11,16.20
2007,08,03,00,12,16.10
2007,08,03,00,13,16.10
2007,08,03,00,14,16.10
2007,08,03,00,15,16.10
2007,08,03,00,16,16.10
2007,08,03,00,17,16.10
2007,08,03,00,18,16.10
2007,08,03,00,19,16.00
2007,08,03,00,20,15.90
2007,08,03,00,21,15.90
2007,08,03,00,22,15.90
2007,08,03,00,23,15.80
2007,08,03,00,24,15.80
2007,08,03,00,25,15.80
2007,08,03,00,26,15.80
2007,08,03,00,27,15.80
2007,08,03,00,28,15.80
2007,08,03,00,29,15.90
2007,08,03,00,30,16.00
2007,08,03,00,31,16.10
2007,08,03,00,32,16.10
2007,08,03,00,33,16.20
2007,08,03,00,34,16.30
2007,08,03,00,35,16.30
2007,08,03,00,36,16.40
2007,08,03,00,37,16.40
2007,08,03,00,38,16.40
2007,08,03,00,39,16.40
2007,08,03,00,40,16.60
2007,08,03,00,41,16.60
2007,08,03,00,42,16.70
2007,08,03,00,43,16.70
2007,08,03,00,44,16.70
2007,08,03,00,45,16.70
2007,08,03,00,46,16.70
2007,08,03,00,47,16.70
2007,08,03,00,48,16.70
2007,08,03,00,49,16.70
2007,08,03,00,50,16.70
2007,08,03,00,51,16.70
2007,08,03,00,52,16.70
2007,08,03,00,53,16.70
2007,08,03,00,54,16.70
2007,08,03,00,55,16.70
2007,08,03,00,56,16.60
2007,08,03,00,57,16.60
2007,08,03,00,58,16.60
2007,08,03,00,59,16.50
2007,08,03,01,00,16.40
2007,08,03,01,01,16.40
2007,08,03,01,02,16.40
2007,08,03,01,03,16.40
2007,08,03,01,04,16.40
2007,08,03,01,05,16.30
2007,08,03,01,06,16.30
2007,08,03,01,07,16.30
2007,08,03,01,08,16.30
2007,08,03,01,09,16.20
2007,08,03,01,10,16.20
2007,08,03,01,11,16.20
2007,08,03,01,12,16.20
2007,08,03,01,13,16.20
2007,08,03,01,14,16.20
2007,08,03,01,15,16.20
2007,08,03,01,16,16.20
2007,08,03,01,17,16.20
2007,08,03,01,18,16.20
2007,08,03,01,19,16.20
2007,08,03,01,20,16.20
2007,08,03,01,21,16.20
2007,08,03,01,22,16.20
2007,08,03,01,23,16.20
2007,08,03,01,24,16.20
2007,08,03,01,25,16.20
2007,08,03,01,26,16.10
2007,08,03,01,27,16.10
2007,08,03,01,28,16.10
2007,08,03,01,29,16.10
2007,08,03,01,30,16.20
2007,08,03,01,31,16.20
2007,08,03,01,32,16.20
2007,08,03,01,33,16.30
2007,08,03,01,34,16.30
2007,08,03,01,35,16.30
2007,08,03,01,36,16.40
2007,08,03,01,37,16.40
2007,08,03,01,38,16.50
2007,08,03,01,39,16.60
2007,08,03,01,40,16.70
2007,08,03,01,41,16.70
2007,08,03,01,42,16.70
2007,08,03,01,43,16.70
2007,08,03,01,44,16.70
2007,08,03,01,45,16.70
2007,08,03,01,46,16.70
2007,08,03,01,47,16.70
2007,08,03,01,48,16.70
2007,08,03,01,49,16.80
2007,08,03,01,50,16.80
2007,08,03,01,51,16.80
2007,08,03,01,52,16.80
2007,08,03,01,53,16.80
2007,08,03,01,54,16.80
2007,08,03,01,55,16.80
2007,08,03,01,56,16.80
2007,08,03,01,57,16.80
2007,08,03,01,58,16.80
2007,08,03,01,59,16.80
2007,08,03,02,00,16.80
2007,08,03,02,01,16.80
2007,08,03,02,02,16.80
2007,08,03,02,03,16.80
2007,08,03,02,04,16.70
2007,08,03,02,05,16.70
2007,08,03,02,06,16.80
2007,08,03,02,07,16.80
2007,08,03,02,08,16.80
2007,08,03,02,09,16.80
2007,08,03,02,10,16.90
2007,08,03,02,11,16.90
2007,08,03,02,12,16.90
2007,08,03,02,13,16.90
2007,08,03,02,14,16.90
2007,08,03,02,15,17.00
2007,08,03,02,16,17.00
2007,08,03,02,17,17.00
2007,08,03,02,18,17.00
2007,08,03,02,19,17.00
2007,08,03,02,20,17.00
2007,08,03,02,21,16.90
2007,08,03,02,22,16.90
2007,08,03,02,23,16.90
2007,08,03,02,24,16.90
2007,08,03,02,25,16.90
2007,08,03,02,26,16.90
2007,08,03,02,27,16.90
2007,08,03,02,28,16.90
2007,08,03,02,29,16.90
2007,08,03,02,30,17.00
2007,08,03,02,31,17.00
2007,08,03,02,32,17.00
2007,08,03,02,33,17.00
2007,08,03,02,34,17.00
2007,08,03,02,35,17.00
2007,08,03,02,36,17.00
2007,08,03,02,37,17.00
2007,08,03,02,38,17.00
2007,08,03,02,39,17.00
2007,08,03,02,40,17.00
2007,08,03,02,41,17.00
2007,08,03,02,42,17.00
2007,08,03,02,43,17.00
2007,08,03,02,44,17.00
2007,08,03,02,45,17.00
2007,08,03,02,46,17.00
2007,08,03,02,47,17.00
2007,08,03,02,48,17.00
2007,08,03,02,49,17.00
2007,08,03,02,50,17.00
2007,08,03,02,51,17.00
2007,08,03,02,52,16.90
2007,08,03,02,53,16.90
2007,08,03,02,54,16.90
2007,08,03,02,55,16.90
2007,08,03,02,56,16.90
2007,08,03,02,57,16.80
2007,08,03,02,58,16.80
2007,08,03,02,59,16.80
2007,08,03,03,00,16.70
2007,08,03,03,01,16.70
2007,08,03,03,02,16.70
2007,08,03,03,03,16.70
2007,08,03,03,04,16.70
2007,08,03,03,05,16.70
2007,08,03,03,06,16.70
2007,08,03,03,07,16.70
2007,08,03,03,08,16.60
2007,08,03,03,09,16.60
2007,08,03,03,10,16.60
2007,08,03,03,11,16.60
2007,08,03,03,12,16.60
2007,08,03,03,13,16.60
2007,08,03,03,14,16.50
2007,08,03,03,15,16.40
2007,08,03,03,16,16.40
2007,08,03,03,17,16.40
2007,08,03,03,18,16.40
2007,08,03,03,19,16.40
2007,08,03,03,20,16.40
2007,08,03,03,21,16.40
2007,08,03,03,22,16.40
2007,08,03,03,23,16.40
2007,08,03,03,24,16.40
2007,08,03,03,25,16.40
2007,08,03,03,26,16.40
2007,08,03,03,27,16.30
2007,08,03,03,28,16.30
2007,08,03,03,29,16.30
2007,08,03,03,30,16.30
2007,08,03,03,31,16.30
2007,08,03,03,32,16.30
2007,08,03,03,33,16.30
2007,08,03,03,34,16.30
2007,08,03,03,35,16.40
2007,08,03,03,36,16.40
2007,08,03,03,37,16.40
2007,08,03,03,38,16.40
2007,08,03,03,39,16.50
2007,08,03,03,40,16.60
2007,08,03,03,41,16.60
2007,08,03,03,42,16.60
2007,08,03,03,43,16.60
2007,08,03,03,44,16.60
2007,08,03,03,45,16.60
2007,08,03,03,46,16.60
2007,08,03,03,47,16.70
2007,08,03,03,48,16.70
2007,08,03,03,49,16.70
2007,08,03,03,50,16.70
2007,08,03,03,51,16.70
2007,08,03,03,52,16.80
2007,08,03,03,53,16.80
2007,08,03,03,54,16.80
2007,08,03,03,55,16.80
2007,08,03,03,56,16.80
2007,08,03,03,57,16.80
2007,08,03,03,58,16.70
2007,08,03,03,59,16.70
2007,08,03,04,00,16.70
2007,08,03,04,01,16.70
2007,08,03,04,02,16.70
2007,08,03,04,03,16.70
2007,08,03,04,04,16.60
2007,08,03,04,05,16.60
2007,08,03,04,06,16.60
2007,08,03,04,07,16.50
2007,08,03,04,08,16.40
2007,08,03,04,09,16.40
2007,08,03,04,10,16.40
2007,08,03,04,11,16.40
2007,08,03,04,12,16.40
2007,08,03,04,13,16.40
2007,08,03,04,14,16.30
2007,08,03,04,15,16.30
2007,08,03,04,16,16.30
2007,08,03,04,17,16.30
2007,08,03,04,18,16.30
2007,08,03,04,19,16.20
2007,08,03,04,20,16.20
2007,08,03,04,21,16.20
2007,08,03,04,22,16.20
2007,08,03,04,23,16.10
2007,08,03,04,24,16.10
2007,08,03,04,25,16.10
2007,08,03,04,26,16.10
2007,08,03,04,27,16.10
2007,08,03,04,28,16.10
2007,08,03,04,29,16.10
2007,08,03,04,30,16.10
2007,08,03,04,31,16.10
2007,08,03,04,32,15.90
2007,08,03,04,33,15.90
2007,08,03,04,34,15.90
2007,08,03,04,35,15.90
2007,08,03,04,36,15.90
2007,08,03,04,37,15.80
2007,08,03,04,38,15.80
2007,08,03,04,39,15.80
2007,08,03,04,40,15.80
2007,08,03,04,41,15.80
2007,08,03,04,42,15.80
2007,08,03,04,43,15.80
2007,08,03,04,44,15.80
2007,08,03,04,45,15.80
2007,08,03,04,46,15.70
2007,08,03,04,47,15.70
2007,08,03,04,48,15.70
2007,08,03,04,49,15.70
2007,08,03,04,50,15.60
2007,08,03,04,51,15.60
2007,08,03,04,52,15.60
2007,08,03,04,53,15.60
2007,08,03,04,54,15.50
2007,08,03,04,55,15.50
2007,08,03,04,56,15.50
2007,08,03,04,57,15.50
2007,08,03,04,58,15.50
2007,08,03,04,59,15.50
2007,08,03,05,00,15.50
2007,08,03,05,01,15.50
2007,08,03,05,02,15.50
2007,08,03,05,03,15.50
2007,08,03,05,04,15.50
2007,08,03,05,05,15.50
2007,08,03,05,06,15.50
2007,08,03,05,07,15.50
2007,08,03,05,08,15.50
2007,08,03,05,09,15.40
2007,08,03,05,10,15.40
2007,08,03,05,11,15.40
2007,08,03,05,12,15.40
2007,08,03,05,13,15.40
2007,08,03,05,14,15.40
2007,08,03,05,15,15.40
2007,08,03,05,16,15.40
2007,08,03,05,17,15.40
2007,08,03,05,18,15.40
2007,08,03,05,19,15.40
2007,08,03,05,20,15.40
2007,08,03,05,21,15.50
2007,08,03,05,22,15.50
2007,08,03,05,23,15.50
2007,08,03,05,24,15.50
2007,08,03,05,25,15.50
2007,08,03,05,26,15.50
2007,08,03,05,27,15.50
2007,08,03,05,28,15.50
2007,08,03,05,29,15.50
2007,08,03,05,30,15.50
2007,08,03,05,31,15.50
2007,08,03,05,32,15.50
2007,08,03,05,33,15.40
2007,08,03,05,34,15.40
2007,08,03,05,35,15.40
2007,08,03,05,36,15.40
2007,08,03,05,37,15.40
2007,08,03,05,38,15.40
2007,08,03,05,39,15.40
2007,08,03,05,40,15.40
2007,08,03,05,41,15.40
2007,08,03,05,42,15.40
2007,08,03,05,43,15.40
2007,08,03,05,44,15.40
2007,08,03,05,45,15.40
2007,08,03,05,46,15.40
2007,08,03,05,47,15.40
2007,08,03,05,48,15.40
2007,08,03,05,49,15.40
2007,08,03,05,50,15.40
2007,08,03,05,51,15.40
2007,08,03,05,52,15.40
2007,08,03,05,53,15.40
2007,08,03,05,54,15.40
2007,08,03,05,55,15.40
2007,08,03,05,56,15.40
2007,08,03,05,57,15.40
2007,08,03,05,58,15.40
2007,08,03,05,59,15.40
2007,08,03,06,00,15.40
2007,08,03,06,01,15.40
2007,08,03,06,02,15.40
2007,08,03,06,03,15.40
2007,08,03,06,04,15.40
2007,08,03,06,05,15.40
2007,08,03,06,06,15.40
2007,08,03,06,07,15.40
2007,08,03,06,08,15.40
2007,08,03,06,09,15.40
2007,08,03,06,10,15.40
2007,08,03,06,11,15.40
2007,08,03,06,12,15.40
2007,08,03,06,13,15.40
2007,08,03,06,14,15.40
2007,08,03,06,15,15.40
2007,08,03,06,16,15.40
2007,08,03,06,17,15.40
2007,08,03,06,18,15.40
2007,08,03,06,19,15.40
2007,08,03,06,20,15.40
2007,08,03,06,21,15.40
2007,08,03,06,22,15.40
2007,08,03,06,23,15.40
2007,08,03,06,24,15.40
2007,08,03,06,25,15.40
2007,08,03,06,26,15.40
2007,08,03,06,27,15.40
2007,08,03,06,28,15.40
2007,08,03,06,29,15.40
2007,08,03,06,30,15.40
2007,08,03,06,31,15.40
2007,08,03,06,32,15.40
2007,08,03,06,33,15.40
2007,08,03,06,34,15.40
2007,08,03,06,35,15.40
2007,08,03,06,36,15.40
2007,08,03,06,37,15.40
2007,08,03,06,38,15.40
2007,08,03,06,39,15.40
2007,08,03,06,40,15.40
2007,08,03,06,41,15.40
2007,08,03,06,42,15.40
2007,08,03,06,43,15.40
2007,08,03,06,44,15.40
2007,08,03,06,45,15.40
2007,08,03,06,46,15.50
2007,08,03,06,47,15.50
2007,08,03,06,48,15.50
2007,08,03,06,49,15.50
2007,08,03,06,50,15.50
2007,08,03,06,51,15.50
2007,08,03,06,52,15.50
2007,08,03,06,53,15.50
2007,08,03,06,54,15.50
2007,08,03,06,55,15.50
2007,08,03,06,56,15.60
2007,08,03,06,57,15.60
2007,08,03,06,58,15.60
2007,08,03,06,59,15.60
2007,08,03,07,00,15.60
2007,08,03,07,01,15.60
2007,08,03,07,02,15.60
2007,08,03,07,03,15.60
2007,08,03,07,04,15.60
2007,08,03,07,05,15.60
2007,08,03,07,06,15.70
2007,08,03,07,07,15.70
2007,08,03,07,08,15.70
2007,08,03,07,09,15.70
2007,08,03,07,10,15.70
2007,08,03,07,11,15.80
2007,08,03,07,12,15.80
2007,08,03,07,13,15.80
2007,08,03,07,14,15.80
2007,08,03,07,15,15.80
2007,08,03,07,16,15.80
2007,08,03,07,17,15.80
2007,08,03,07,18,15.80
2007,08,03,07,19,15.80
2007,08,03,07,20,15.90
2007,08,03,07,21,15.90
2007,08,03,07,22,15.90
2007,08,03,07,23,15.90
2007,08,03,07,24,15.90
2007,08,03,07,25,15.90
2007,08,03,07,26,16.00
2007,08,03,07,27,16.10
2007,08,03,07,28,16.10
2007,08,03,07,29,16.10
2007,08,03,07,30,16.10
2007,08,03,07,31,16.10
2007,08,03,07,32,16.10
2007,08,03,07,33,16.10
2007,08,03,07,34,16.10
2007,08,03,07,35,16.20
2007,08,03,07,36,16.20
2007,08,03,07,37,16.20
2007,08,03,07,38,16.20
2007,08,03,07,39,16.30
2007,08,03,07,40,16.30
2007,08,03,07,41,16.30
2007,08,03,07,42,16.40
2007,08,03,07,43,16.40
2007,08,03,07,44,16.40
2007,08,03,07,45,16.40
2007,08,03,07,46,16.50
2007,08,03,07,47,16.60
2007,08,03,07,48,16.60
2007,08,03,07,49,16.60
2007,08,03,07,50,16.70
2007,08,03,07,51,16.70
2007,08,03,07,52,16.70
2007,08,03,07,53,16.70
2007,08,03,07,54,16.70
2007,08,03,07,55,16.70
2007,08,03,07,56,16.70
2007,08,03,07,57,16.80
2007,08,03,07,58,16.80
2007,08,03,07,59,16.80
2007,08,03,08,00,16.80
2007,08,03,08,01,16.90
2007,08,03,08,02,16.90
2007,08,03,08,03,16.90
2007,08,03,08,04,16.90
2007,08,03,08,05,16.90
2007,08,03,08,06,16.90
2007,08,03,08,07,17.00
2007,08,03,08,08,17.00
2007,08,03,08,09,17.00
2007,08,03,08,10,17.10
2007,08,03,08,11,17.10
2007,08,03,08,12,17.20
2007,08,03,08,13,17.20
2007,08,03,08,14,17.30
2007,08,03,08,15,17.30
2007,08,03,08,16,17.30
2007,08,03,08,17,17.30
2007,08,03,08,18,17.30
2007,08,03,08,19,17.40
2007,08,03,08,20,17.40
2007,08,03,08,21,17.40
2007,08,03,08,22,17.40
2007,08,03,08,23,17.50
2007,08,03,08,24,17.50
2007,08,03,08,25,17.50
2007,08,03,08,26,17.60
2007,08,03,08,27,17.60
2007,08,03,08,28,17.60
2007,08,03,08,29,17.70
2007,08,03,08,30,17.70
2007,08,03,08,31,17.70
2007,08,03,08,32,17.80
2007,08,03,08,33,17.80
2007,08,03,08,34,17.80
2007,08,03,08,35,17.80
2007,08,03,08,36,17.80
2007,08,03,08,37,17.90
2007,08,03,08,38,17.90
2007,08,03,08,39,17.90
2007,08,03,08,40,17.90
2007,08,03,08,41,17.90
2007,08,03,08,42,17.90
2007,08,03,08,43,17.90
2007,08,03,08,44,17.90
2007,08,03,08,45,17.90
2007,08,03,08,46,17.90
2007,08,03,08,47,17.90
2007,08,03,08,48,17.90
2007,08,03,08,49,17.90
2007,08,03,08,50,17.90
2007,08,03,08,51,17.90
2007,08,03,08,52,17.90
2007,08,03,08,53,17.90
2007,08,03,08,54,17.90
2007,08,03,08,55,17.90
2007,08,03,08,56,17.90
2007,08,03,08,57,18.00
2007,08,03,08,58,18.10
2007,08,03,08,59,18.10
2007,08,03,09,00,18.10
2007,08,03,09,01,18.20
2007,08,03,09,02,18.20
2007,08,03,09,03,18.20
2007,08,03,09,04,18.20
2007,08,03,09,05,18.20
2007,08,03,09,06,18.20
2007,08,03,09,07,18.20
2007,08,03,09,08,18.20
2007,08,03,09,09,18.20
2007,08,03,09,10,18.20
2007,08,03,09,11,18.30
2007,08,03,09,12,18.30
2007,08,03,09,13,18.30
2007,08,03,09,14,18.40
2007,08,03,09,15,18.40
2007,08,03,09,16,18.40
2007,08,03,09,17,18.50
2007,08,03,09,18,18.50
2007,08,03,09,19,18.50
2007,08,03,09,20,18.50
2007,08,03,09,21,18.60
2007,08,03,09,22,18.60
2007,08,03,09,23,18.60
2007,08,03,09,24,18.60
2007,08,03,09,25,18.60
2007,08,03,09,26,18.70
2007,08,03,09,27,18.70
2007,08,03,09,28,18.70
2007,08,03,09,29,18.70
2007,08,03,09,30,18.80
2007,08,03,09,31,18.80
2007,08,03,09,32,18.70
2007,08,03,09,33,18.70
2007,08,03,09,34,18.80
2007,08,03,09,35,18.80
2007,08,03,09,36,18.80
2007,08,03,09,37,18.80
2007,08,03,09,38,18.70
2007,08,03,09,39,18.70
2007,08,03,09,40,18.70
2007,08,03,09,41,18.60
2007,08,03,09,42,18.60
2007,08,03,09,43,18.60
2007,08,03,09,44,18.50
2007,08,03,09,45,18.50
2007,08,03,09,46,18.50
2007,08,03,09,47,18.50
2007,08,03,09,48,18.60
2007,08,03,09,49,18.60
2007,08,03,09,50,18.60
2007,08,03,09,51,18.60
2007,08,03,09,52,18.60
2007,08,03,09,53,18.60
2007,08,03,09,54,18.60
2007,08,03,09,55,18.60
2007,08,03,09,56,18.60
2007,08,03,09,57,18.50
2007,08,03,09,58,18.50
2007,08,03,09,59,18.50
2007,08,03,10,00,18.50
2007,08,03,10,01,18.40
2007,08,03,10,02,18.40
2007,08,03,10,03,18.40
2007,08,03,10,04,18.40
2007,08,03,10,05,18.40
2007,08,03,10,06,18.40
2007,08,03,10,07,18.40
2007,08,03,10,08,18.40
2007,08,03,10,09,18.40
2007,08,03,10,10,18.50
2007,08,03,10,11,18.50
2007,08,03,10,12,18.50
2007,08,03,10,13,18.60
2007,08,03,10,14,18.60
2007,08,03,10,15,18.70
2007,08,03,10,16,18.70
2007,08,03,10,17,18.80
2007,08,03,10,18,18.80
2007,08,03,10,19,18.90
2007,08,03,10,20,18.90
2007,08,03,10,21,18.90
2007,08,03,10,22,18.90
2007,08,03,10,23,18.90
2007,08,03,10,24,18.90
2007,08,03,10,25,19.00
2007,08,03,10,26,19.10
2007,08,03,10,27,19.10
2007,08,03,10,28,19.10
2007,08,03,10,29,19.10
2007,08,03,10,30,19.20
2007,08,03,10,31,19.20
2007,08,03,10,32,19.30
2007,08,03,10,33,19.40
2007,08,03,10,34,19.40
2007,08,03,10,35,19.50
2007,08,03,10,36,19.60
2007,08,03,10,37,19.70
2007,08,03,10,38,19.80
2007,08,03,10,39,19.90
2007,08,03,10,40,19.90
2007,08,03,10,41,19.90
2007,08,03,10,42,19.90
2007,08,03,10,43,19.90
2007,08,03,10,44,19.90
2007,08,03,10,45,19.90
2007,08,03,10,46,19.90
2007,08,03,10,47,19.90
2007,08,03,10,48,20.00
2007,08,03,10,49,20.10
2007,08,03,10,50,20.10
2007,08,03,10,51,20.10
2007,08,03,10,52,20.00
2007,08,03,10,53,19.90
2007,08,03,10,54,19.80
2007,08,03,10,55,19.80
2007,08,03,10,56,19.90
2007,08,03,10,57,19.90
2007,08,03,10,58,19.90
2007,08,03,10,59,19.90
2007,08,03,11,00,19.90
2007,08,03,11,01,19.90
2007,08,03,11,02,19.90
2007,08,03,11,03,19.90
2007,08,03,11,04,19.90
2007,08,03,11,05,19.90
2007,08,03,11,06,19.90
2007,08,03,11,07,19.90
2007,08,03,11,08,19.90
2007,08,03,11,09,19.90
2007,08,03,11,10,19.90
2007,08,03,11,11,19.80
2007,08,03,11,12,19.80
2007,08,03,11,13,19.80
2007,08,03,11,14,19.70
2007,08,03,11,15,19.70
2007,08,03,11,16,19.60
2007,08,03,11,17,19.60
2007,08,03,11,18,19.60
2007,08,03,11,19,19.60
2007,08,03,11,20,19.70
2007,08,03,11,21,19.70
2007,08,03,11,22,19.80
2007,08,03,11,23,19.90
2007,08,03,11,24,19.90
2007,08,03,11,25,20.10
2007,08,03,11,26,20.20
2007,08,03,11,27,20.30
2007,08,03,11,28,20.40
2007,08,03,11,29,20.50
2007,08,03,11,30,20.60
2007,08,03,11,31,20.80
2007,08,03,11,32,20.90
2007,08,03,11,33,21.00
2007,08,03,11,34,21.10
2007,08,03,11,35,21.20
2007,08,03,11,36,21.20
2007,08,03,11,37,21.30
2007,08,03,11,38,21.30
2007,08,03,11,39,21.30
2007,08,03,11,40,21.30
2007,08,03,11,41,21.30
2007,08,03,11,42,21.30
2007,08,03,11,43,21.30
2007,08,03,11,44,21.30
2007,08,03,11,45,21.20
2007,08,03,11,46,21.10
2007,08,03,11,47,21.10
2007,08,03,11,48,21.10
2007,08,03,11,49,20.90
2007,08,03,11,50,20.90
2007,08,03,11,51,20.70
2007,08,03,11,52,20.70
2007,08,03,11,53,20.70
2007,08,03,11,54,20.80
2007,08,03,11,55,20.90
2007,08,03,11,56,20.90
2007,08,03,11,57,21.00
2007,08,03,11,58,21.10
2007,08,03,11,59,21.30
2007,08,03,12,00,21.40
2007,08,03,12,01,21.60
2007,08,03,12,02,21.60
2007,08,03,12,03,21.60
2007,08,03,12,04,21.60
2007,08,03,12,05,21.60
2007,08,03,12,06,21.60
2007,08,03,12,07,21.60
2007,08,03,12,08,21.60
2007,08,03,12,09,21.60
2007,08,03,12,10,21.60
2007,08,03,12,11,21.70
2007,08,03,12,12,21.60
2007,08,03,12,13,21.40
2007,08,03,12,14,21.30
2007,08,03,12,15,21.30
2007,08,03,12,16,21.30
2007,08,03,12,17,21.20
2007,08,03,12,18,21.20
2007,08,03,12,19,21.20
2007,08,03,12,20,21.20
2007,08,03,12,21,21.30
2007,08,03,12,22,21.30
2007,08,03,12,23,21.10
2007,08,03,12,24,21.00
2007,08,03,12,25,20.90
2007,08,03,12,26,20.90
2007,08,03,12,27,20.90
2007,08,03,12,28,20.80
2007,08,03,12,29,20.80
2007,08,03,12,30,20.80
2007,08,03,12,31,20.80
2007,08,03,12,32,20.80
2007,08,03,12,33,20.70
2007,08,03,12,34,20.50
2007,08,03,12,35,20.40
2007,08,03,12,36,20.40
2007,08,03,12,37,20.40
2007,08,03,12,38,20.30
2007,08,03,12,39,20.20
2007,08,03,12,40,20.30
2007,08,03,12,41,20.30
2007,08,03,12,42,20.40
2007,08,03,12,43,20.50
2007,08,03,12,44,20.50
2007,08,03,12,45,20.50
2007,08,03,12,46,20.50
2007,08,03,12,47,20.60
2007,08,03,12,48,20.50
2007,08,03,12,49,20.50
2007,08,03,12,50,20.70
2007,08,03,12,51,20.70
2007,08,03,12,52,20.70
2007,08,03,12,53,20.80
2007,08,03,12,54,20.80
2007,08,03,12,55,20.90
2007,08,03,12,56,21.00
2007,08,03,12,57,21.10
2007,08,03,12,58,21.20
2007,08,03,12,59,21.30
2007,08,03,13,00,21.30
2007,08,03,13,01,21.30
2007,08,03,13,02,21.30
2007,08,03,13,03,21.30
2007,08,03,13,04,21.30
2007,08,03,13,05,21.20
2007,08,03,13,06,21.20
2007,08,03,13,07,21.20
2007,08,03,13,08,21.20
2007,08,03,13,09,21.20
2007,08,03,13,10,21.20
2007,08,03,13,11,21.30
2007,08,03,13,12,21.40
2007,08,03,13,13,21.50
2007,08,03,13,14,21.60
2007,08,03,13,15,21.60
2007,08,03,13,16,21.70
2007,08,03,13,17,21.80
2007,08,03,13,18,21.90
2007,08,03,13,19,22.00
2007,08,03,13,20,22.10
2007,08,03,13,21,22.00
2007,08,03,13,22,21.90
2007,08,03,13,23,22.00
2007,08,03,13,24,22.10
2007,08,03,13,25,22.20
2007,08,03,13,26,22.30
2007,08,03,13,27,22.30
2007,08,03,13,28,22.40
2007,08,03,13,29,22.50
2007,08,03,13,30,22.70
2007,08,03,13,31,22.80
2007,08,03,13,32,22.70
2007,08,03,13,33,22.60
2007,08,03,13,34,22.60
2007,08,03,13,35,22.50
2007,08,03,13,36,22.50
2007,08,03,13,37,22.60
2007,08,03,13,38,22.50
2007,08,03,13,39,22.50
2007,08,03,13,40,22.40
2007,08,03,13,41,22.30
2007,08,03,13,42,22.20
2007,08,03,13,43,22.30
2007,08,03,13,44,22.30
2007,08,03,13,45,22.40
2007,08,03,13,46,22.40
2007,08,03,13,47,22.50
2007,08,03,13,48,22.50
2007,08,03,13,49,22.50
2007,08,03,13,50,22.50
2007,08,03,13,51,22.60
2007,08,03,13,52,22.60
2007,08,03,13,53,22.60
2007,08,03,13,54,22.50
2007,08,03,13,55,22.50
2007,08,03,13,56,22.60
2007,08,03,13,57,22.70
2007,08,03,13,58,22.70
2007,08,03,13,59,22.70
2007,08,03,14,00,22.80
2007,08,03,14,01,22.80
2007,08,03,14,02,22.90
2007,08,03,14,03,23.00
2007,08,03,14,04,23.20
2007,08,03,14,05,23.30
2007,08,03,14,06,23.40
2007,08,03,14,07,23.60
2007,08,03,14,08,23.60
2007,08,03,14,09,23.60
2007,08,03,14,10,23.60
2007,08,03,14,11,23.60
2007,08,03,14,12,23.60
2007,08,03,14,13,23.60
2007,08,03,14,14,23.70
2007,08,03,14,15,23.70
2007,08,03,14,16,23.70
2007,08,03,14,17,23.70
2007,08,03,14,18,23.70
2007,08,03,14,19,23.70
2007,08,03,14,20,23.70
2007,08,03,14,21,23.80
2007,08,03,14,22,23.80
2007,08,03,14,23,23.80
2007,08,03,14,24,23.80
2007,08,03,14,25,23.80
2007,08,03,14,26,23.90
2007,08,03,14,27,24.10
2007,08,03,14,28,24.10
2007,08,03,14,29,24.10
2007,08,03,14,30,24.10
2007,08,03,14,31,24.10
2007,08,03,14,32,24.00
2007,08,03,14,33,23.80
2007,08,03,14,34,23.70
2007,08,03,14,35,23.70
2007,08,03,14,36,23.60
2007,08,03,14,37,23.50
2007,08,03,14,38,23.40
2007,08,03,14,39,23.30
2007,08,03,14,40,23.30
2007,08,03,14,41,23.30
2007,08,03,14,42,23.30
2007,08,03,14,43,23.30
2007,08,03,14,44,23.30
2007,08,03,14,45,23.30
2007,08,03,14,46,23.40
2007,08,03,14,47,23.50
2007,08,03,14,48,23.50
2007,08,03,14,49,23.50
2007,08,03,14,50,23.40
2007,08,03,14,51,23.30
2007,08,03,14,52,23.20
2007,08,03,14,53,23.20
2007,08,03,14,54,23.30
2007,08,03,14,55,23.30
2007,08,03,14,56,23.20
2007,08,03,14,57,23.20
2007,08,03,14,58,23.20
2007,08,03,14,59,23.20
2007,08,03,15,00,23.20
2007,08,03,15,01,23.20
2007,08,03,15,02,23.20
2007,08,03,15,03,23.20
2007,08,03,15,04,23.20
2007,08,03,15,05,23.30
2007,08,03,15,06,23.50
2007,08,03,15,07,23.60
2007,08,03,15,08,23.70
2007,08,03,15,09,23.80
2007,08,03,15,10,23.90
2007,08,03,15,11,24.00
2007,08,03,15,12,24.10
2007,08,03,15,13,24.20
2007,08,03,15,14,24.30
2007,08,03,15,15,24.30
2007,08,03,15,16,24.30
2007,08,03,15,17,24.30
2007,08,03,15,18,24.40
2007,08,03,15,19,24.40
2007,08,03,15,20,24.50
2007,08,03,15,21,24.50
2007,08,03,15,22,24.50
2007,08,03,15,23,24.50
2007,08,03,15,24,24.50
2007,08,03,15,25,24.50
2007,08,03,15,26,24.50
2007,08,03,15,27,24.60
2007,08,03,15,28,24.60
2007,08,03,15,29,24.70
2007,08,03,15,30,24.70
2007,08,03,15,31,24.60
2007,08,03,15,32,24.60
2007,08,03,15,33,24.60
2007,08,03,15,34,24.60
2007,08,03,15,35,24.60
2007,08,03,15,36,24.40
2007,08,03,15,37,24.30
2007,08,03,15,38,24.30
2007,08,03,15,39,24.20
2007,08,03,15,40,24.10
2007,08,03,15,41,24.00
2007,08,03,15,42,23.90
2007,08,03,15,43,23.90
2007,08,03,15,44,24.00
2007,08,03,15,45,24.10
2007,08,03,15,46,24.10
2007,08,03,15,47,24.10
2007,08,03,15,48,24.10
2007,08,03,15,49,24.00
2007,08,03,15,50,23.80
2007,08,03,15,51,23.70
2007,08,03,15,52,23.70
2007,08,03,15,53,23.70
2007,08,03,15,54,23.70
2007,08,03,15,55,23.70
2007,08,03,15,56,23.70
2007,08,03,15,57,23.70
2007,08,03,15,58,23.70
2007,08,03,15,59,23.70
2007,08,03,16,00,23.70
2007,08,03,16,01,23.60
2007,08,03,16,02,23.60
2007,08,03,16,03,23.60
2007,08,03,16,04,23.50
2007,08,03,16,05,23.40
2007,08,03,16,06,23.30
2007,08,03,16,07,23.30
2007,08,03,16,08,23.30
2007,08,03,16,09,23.30
2007,08,03,16,10,23.40
2007,08,03,16,11,23.40
2007,08,03,16,12,23.40
2007,08,03,16,13,23.50
2007,08,03,16,14,23.60
2007,08,03,16,15,23.80
2007,08,03,16,16,24.00
2007,08,03,16,17,24.10
2007,08,03,16,18,24.20
2007,08,03,16,19,24.20
2007,08,03,16,20,24.30
2007,08,03,16,21,24.30
2007,08,03,16,22,24.40
2007,08,03,16,23,24.50
2007,08,03,16,24,24.50
2007,08,03,16,25,24.50
2007,08,03,16,26,24.50
2007,08,03,16,27,24.50
2007,08,03,16,28,24.50
2007,08,03,16,29,24.60
2007,08,03,16,30,24.60
2007,08,03,16,31,24.40
2007,08,03,16,32,24.30
2007,08,03,16,33,24.00
2007,08,03,16,34,23.80
2007,08,03,16,35,23.60
2007,08,03,16,36,23.50
2007,08,03,16,37,23.30
2007,08,03,16,38,23.20
2007,08,03,16,39,23.10
2007,08,03,16,40,23.10
2007,08,03,16,41,23.10
2007,08,03,16,42,23.10
2007,08,03,16,43,23.10
2007,08,03,16,44,23.20
2007,08,03,16,45,23.20
2007,08,03,16,46,23.20
2007,08,03,16,47,23.30
2007,08,03,16,48,23.20
2007,08,03,16,49,23.10
2007,08,03,16,50,23.00
2007,08,03,16,51,22.90
2007,08,03,16,52,22.90
2007,08,03,16,53,22.80
2007,08,03,16,54,22.80
2007,08,03,16,55,22.70
2007,08,03,16,56,22.70
2007,08,03,16,57,22.70
2007,08,03,16,58,22.60
2007,08,03,16,59,22.60
2007,08,03,17,00,22.50
2007,08,03,17,01,22.50
2007,08,03,17,02,22.50
2007,08,03,17,03,22.50
2007,08,03,17,04,22.50
2007,08,03,17,05,22.50
2007,08,03,17,06,22.50
2007,08,03,17,07,22.50
2007,08,03,17,08,22.50
2007,08,03,17,09,22.50
2007,08,03,17,10,22.50
2007,08,03,17,11,22.50
2007,08,03,17,12,22.50
2007,08,03,17,13,22.50
2007,08,03,17,14,22.50
2007,08,03,17,15,22.40
2007,08,03,17,16,22.40
2007,08,03,17,17,22.30
2007,08,03,17,18,22.30
2007,08,03,17,19,22.30